Regional Weather Roundup
Issued by NWS

Home | Current Version | Previous Version | Text Only | Print | Product List | Glossary On
Versions: 1 2 3 4 5 6 7 8 9 10 11 12 13 14 15 16 17 18 19 20 21 22 23 24 25 26 27 28 29 30 31 32 33 34 35 36 37 38 39 40 41 42 43 44 45 46 47 48 49 50
000
ASUS43 KDMX 050207
RWRIA

WEATHER ROUNDUP FOR IOWA
NATIONAL WEATHER SERVICE DES MOINES IA
900 PM CDT SAT JUL 04 2015

NOTE: "FAIR" INDICATES FEW OR NO CLOUDS BELOW 12,000 FEET WITH NO
SIGNIFICANT WEATHER AND/OR OBSTRUCTIONS TO VISIBILITY.

* - THESE STATIONS ARE NOT NWS STATIONS...THUS NOT UNDER NWS
QUALITY CONTROL.  THEY ALSO DO NOT REPORT WEATHER SUCH
AS PRECIPITATION OR FOG.

IAZ001>003-012>014-020>022-031>034-043>046-050300-
   NORTHWEST IOWA

CITY           SKY/WX    TMP DP  RH WIND       PRES   REMARKS
CARROLL *      CLEAR     72  64  78 SE3       29.93S
CHEROKEE *     CLEAR     70  64  83 S6        29.90F
DENISON *      CLEAR     72  61  68 MISG      29.90F
LE MARS *      CLEAR     73  66  78 S7        29.89S
ORANGE CITY *  CLEAR     72  63  73 S5        29.90S
SHELDON *      CLEAR     72  68  88 S7        29.89S
SIOUX CITY     CLEAR     75  63  66 S9        29.88S
SPENCER        CLEAR     70  60  70 S8        29.90F
STORM LAKE *   CLEAR     68  63  83 S7        29.93S
$$

IAZ055>058-069>071-079>083-090>094-050300-
   SOUTHWEST IOWA

CITY           SKY/WX    TMP DP  RH WIND       PRES   REMARKS
ATLANTIC *     CLEAR     73  63  68 CALM      29.93S
AUDUBON *      CLEAR     70  64  83 CALM      29.95R
CLARINDA *     CLEAR     72  66  83 CALM      29.94S
COUNCIL BLFS * CLEAR     72  64  78 SE6       29.92S
CRESTON *      CLEAR     73  63  68 SE7       29.95F
HARLAN  *      CLEAR     70  70 100 CALM      29.96S
LAMONI         MOCLDY    75  63  66 SE3       29.96S
RED OAK *      CLEAR     73  64  73 CALM      29.93S
SHENANDOAH *   CLEAR     72  64  78 S6        29.93S
$$

IAZ047>049-059>061-072>074-084-050300-
   CENTRAL IOWA

CITY           SKY/WX    TMP DP  RH WIND       PRES   REMARKS
AMES           PTCLDY    68  63  84 SE5       29.94S
ANKENY *       CLEAR     72  64  78 CALM      29.94S
CHARITON *     CLEAR     72  64  78 S3        29.97R
DES MOINES     MOCLDY    76  60  57 SE6       29.94S
GRINNELL*      PTCLDY    72  61  68 SE5       29.98S
KNOXVILLE *    CLEAR     73  63  68 SE5       29.95S
MARSHALLTOWN   PTCLDY    71  62  73 SE7       29.95F
PELLA *        PTCLDY    72  66  83 CALM      29.97R
PERRY *          N/A     70  63  78 SE3       29.94S
$$

IAZ004>006-015-016-023>025-035-036-050300-
   NORTH CENTRAL IOWA

CITY           SKY/WX    TMP DP  RH WIND       PRES   REMARKS
ALGONA *       CLEAR     72  61  68 S7        29.93S
CLARION *      CLEAR     72  63  73 SE8       29.93F
ESTHERVILLE    CLEAR     69  61  75 S8        29.91S
FORT DODGE *   CLEAR     73  59  60 SE3       29.94S
MASON CITY     PTCLDY    67  62  84 S7        29.95F
FOREST CITY *  CLEAR     64  61  88 S6        29.93F
IOWA FALLS *     N/A     68  63  83 S6        29.96F
$$

IAZ007>011-017>019-026>030-037>042-050>054-066-050300-
   NORTHEAST IOWA

CITY           SKY/WX    TMP DP  RH WIND       PRES   REMARKS
CEDAR RAPIDS   CLEAR     68  66  93 CALM      29.97S
CHARLES CITY * CLEAR     70  64  83 S6        29.96S
CLINTON *      CLEAR     72  61  68 CALM      30.01S
DECORAH *        N/A    N/A N/A N/A MISG        N/A
DUBUQUE        CLEAR     69  63  81 S6        29.99S
MONTICELLO *   CLEAR     70  66  88 CALM      29.97S
OELWEIN *      CLEAR     68  64  88 S5        29.98R
WATERLOO       PTCLDY    72  62  71 S7        29.95S
$$

IAZ064-065-067-068-078-050300-
   EAST CENTRAL IOWA

CITY           SKY/WX    TMP DP  RH WIND       PRES   REMARKS
DAVENPORT      CLEAR     67  63  87 CALM      29.99S
IOWA CITY      CLEAR     71  63  75 SE3       29.98S
MT. PLEASANT * CLEAR     72  63  73 SE5       29.98S
MUSCATINE *    CLEAR     70  64  83 CALM      29.98R
QUAD CITIES    CLEAR     69  63  81 S5        29.98S
$$

IAZ062-063-075>077-085>089-095>099-050300-
   SOUTHEAST IOWA

CITY           SKY/WX    TMP DP  RH WIND       PRES   REMARKS
BURLINGTON     CLEAR     70  66  87 CALM      29.99R
FAIRFIELD *    CLEAR     70  64  83 SE3       29.98S
FORT MADISON * CLEAR     70  64  83 CALM      30.00R
KEOKUK *       CLEAR     72  66  83 CALM      29.99R
OSKALOOSA *      N/A     70  64  83 SE5       29.98R
CENTERVILLE *  CLEAR     70  64  83 SE6       29.98F
OTTUMWA        CLEAR     69  63  81 SE7       29.96R
WASHINGTON *   CLEAR     68  64  88 SE5       29.99S
$$

ABBREVIATIONS USED IN REMARKS
   TC - TEMPERATURES IN CELSIUS
  WCI - WIND CHILL INDEX
   HX - HEAT INDEX
  VSB - VISIBILITY
$$



USA.gov is the U.S. government's official web portal to all federal, state and local government web resources and services.